Time,TemperatureF,DewpointF,PressureIn,WindDirection,WindDirectionDegrees,WindSpeedMPH,WindSpeedGustMPH,Humidity,HourlyPrecipIn,Conditions,Clouds,dailyrainin,SoftwareType,DateUTC
2013-01-03 00:00:00,29.0,18.0,-100.00,WNW,300,16.0,18.0,63,-99.99,,,-99.99,,2013-01-03 05:00:00,
2013-01-03 00:12:00,29.0,18.0,-100.00,WNW,300,16.0,20.0,63,-99.99,,,-99.99,,2013-01-03 05:12:00,
2013-01-03 00:22:00,29.0,18.0,-100.00,WNW,300,16.0,18.0,63,-99.99,,,-99.99,,2013-01-03 05:22:00,
2013-01-03 00:33:00,29.0,18.0,-100.00,WNW,300,16.0,18.0,63,-99.99,,,-99.99,,2013-01-03 05:33:00,
2013-01-03 00:42:00,29.0,18.0,-100.00,WNW,300,16.0,18.0,63,-99.99,,,-99.99,,2013-01-03 05:42:00,
2013-01-03 00:52:00,29.0,18.0,-100.00,WNW,300,16.0,18.0,63,-99.99,,,-99.99,,2013-01-03 05:52:00,
2013-01-03 01:00:00,29.0,18.0,-100.00,NW,310,16.0,20.0,63,-99.99,,,-99.99,,2013-01-03 06:00:00,
2013-01-03 01:11:00,29.0,18.0,-100.00,NW,310,16.0,20.0,63,-99.99,,,-99.99,,2013-01-03 06:11:00,
2013-01-03 01:22:00,29.0,18.0,-100.00,NW,310,16.0,20.0,63,-99.99,,,-99.99,,2013-01-03 06:22:00,
2013-01-03 01:32:00,29.0,18.0,-100.00,NW,310,16.0,20.0,63,-99.99,,,-99.99,,2013-01-03 06:32:00,
2013-01-03 01:42:00,29.0,18.0,-100.00,NW,310,16.0,20.0,63,-99.99,,,-99.99,,2013-01-03 06:42:00,
2013-01-03 01:52:00,29.0,18.0,-100.00,NW,310,16.0,20.0,63,-99.99,,,-99.99,,2013-01-03 06:52:00,
2013-01-03 02:11:00,28.0,17.0,-100.00,NW,310,20.0,25.0,62,-99.99,,,-99.99,,2013-01-03 07:11:00,
2013-01-03 02:22:00,28.0,17.0,-100.00,NW,310,20.0,25.0,62,-99.99,,,-99.99,,2013-01-03 07:22:00,
2013-01-03 02:32:00,28.0,17.0,-100.00,NW,310,20.0,25.0,62,-99.99,,,-99.99,,2013-01-03 07:32:00,
2013-01-03 02:42:00,27.0,16.0,-100.00,NW,310,18.0,22.0,62,-99.99,,,-99.99,,2013-01-03 07:42:00,
2013-01-03 02:52:00,27.0,16.0,-100.00,NW,310,18.0,22.0,62,-99.99,,,-99.99,,2013-01-03 07:52:00,
2013-01-03 03:01:00,26.0,15.0,-100.00,NW,310,18.0,25.0,61,-99.99,,,-99.99,,2013-01-03 08:01:00,
2013-01-03 03:11:00,26.0,15.0,-100.00,NW,310,18.0,25.0,61,-99.99,,,-99.99,,2013-01-03 08:11:00,
2013-01-03 03:21:00,26.0,14.0,-100.00,NW,310,18.0,22.0,60,-99.99,,,-99.99,,2013-01-03 08:21:00,
2013-01-03 03:32:00,26.0,14.0,-100.00,NW,310,18.0,22.0,60,-99.99,,,-99.99,,2013-01-03 08:32:00,
2013-01-03 03:42:00,26.0,14.0,-100.00,NW,310,18.0,22.0,61,-99.99,,,-99.99,,2013-01-03 08:42:00,
2013-01-03 03:52:00,26.0,14.0,-100.00,NW,310,18.0,22.0,61,-99.99,,,-99.99,,2013-01-03 08:52:00,
2013-01-03 04:02:00,26.0,15.0,-100.00,WNW,300,18.0,20.0,62,-99.99,,,-99.99,,2013-01-03 09:02:00,
2013-01-03 04:11:00,26.0,15.0,-100.00,WNW,300,18.0,20.0,62,-99.99,,,-99.99,,2013-01-03 09:11:00,
2013-01-03 04:21:00,26.0,15.0,-100.00,WNW,300,18.0,20.0,62,-99.99,,,-99.99,,2013-01-03 09:21:00,
2013-01-03 04:32:00,25.0,13.0,-100.00,NW,310,16.0,20.0,61,-99.99,,,-99.99,,2013-01-03 09:32:00,
2013-01-03 04:42:00,25.0,13.0,-100.00,NW,310,16.0,20.0,61,-99.99,,,-99.99,,2013-01-03 09:42:00,
2013-01-03 04:52:00,25.0,13.0,-100.00,NW,310,16.0,20.0,61,-99.99,,,-99.99,,2013-01-03 09:52:00,
2013-01-03 05:01:00,25.0,13.0,-100.00,NW,310,16.0,20.0,61,-99.99,,,-99.99,,2013-01-03 10:01:00,
2013-01-03 05:11:00,24.0,13.0,-100.00,NW,320,16.0,20.0,62,-99.99,,,-99.99,,2013-01-03 10:11:00,
2013-01-03 05:22:00,24.0,13.0,-100.00,NW,320,16.0,20.0,62,-99.99,,,-99.99,,2013-01-03 10:22:00,
2013-01-03 05:32:00,23.0,11.0,-100.00,NW,310,18.0,22.0,59,-99.99,,,-99.99,,2013-01-03 10:32:00,
2013-01-03 05:42:00,23.0,11.0,-100.00,NW,310,18.0,22.0,59,-99.99,,,-99.99,,2013-01-03 10:42:00,
2013-01-03 05:52:00,23.0,11.0,-100.00,NW,310,18.0,22.0,59,-99.99,,,-99.99,,2013-01-03 10:52:00,
2013-01-03 06:01:00,23.0,11.0,-100.00,NW,320,13.0,18.0,59,-99.99,,,-99.99,,2013-01-03 11:01:00,
2013-01-03 06:11:00,23.0,11.0,-100.00,NW,320,13.0,18.0,59,-99.99,,,-99.99,,2013-01-03 11:11:00,
2013-01-03 06:22:00,22.0,10.0,-100.00,NW,320,11.0,16.0,59,-99.99,,,-99.99,,2013-01-03 11:22:00,
2013-01-03 06:32:00,22.0,10.0,-100.00,NW,320,11.0,16.0,59,-99.99,,,-99.99,,2013-01-03 11:32:00,
2013-01-03 06:42:00,21.0,9.0,-100.00,NW,320,13.0,18.0,60,-99.99,,,-99.99,,2013-01-03 11:42:00,
2013-01-03 06:52:00,21.0,9.0,-100.00,NW,320,13.0,18.0,60,-99.99,,,-99.99,,2013-01-03 11:52:00,
2013-01-03 07:02:00,21.0,9.0,-100.00,NW,320,13.0,18.0,60,-99.99,,,-99.99,,2013-01-03 12:02:00,
2013-01-03 07:12:00,21.0,9.0,-100.00,NW,310,11.0,16.0,60,-99.99,,,-99.99,,2013-01-03 12:12:00,
2013-01-03 07:22:00,21.0,9.0,-100.00,NW,310,11.0,16.0,60,-99.99,,,-99.99,,2013-01-03 12:22:00,
2013-01-03 07:32:00,21.0,9.0,-100.00,NW,310,13.0,18.0,60,-99.99,,,-99.99,,2013-01-03 12:32:00,
2013-01-03 07:42:00,20.0,9.0,-100.00,NW,310,13.0,18.0,59,-99.99,,,-99.99,,2013-01-03 12:42:00,
2013-01-03 07:52:00,20.0,9.0,-100.00,NW,310,13.0,18.0,59,-99.99,,,-99.99,,2013-01-03 12:52:00,
2013-01-03 08:02:00,20.0,9.0,-100.00,NW,310,13.0,18.0,59,-99.99,,,-99.99,,2013-01-03 13:02:00,
2013-01-03 08:12:00,21.0,11.0,-100.00,WNW,300,13.0,18.0,64,-99.99,,,-99.99,,2013-01-03 13:12:00,
2013-01-03 08:22:00,21.0,11.0,-100.00,WNW,300,13.0,18.0,64,-99.99,,,-99.99,,2013-01-03 13:22:00,
2013-01-03 08:32:00,21.0,11.0,-100.00,WNW,300,13.0,18.0,64,-99.99,,,-99.99,,2013-01-03 13:32:00,
2013-01-03 08:42:00,20.0,11.0,-100.00,NW,310,13.0,18.0,64,-99.99,,,-99.99,,2013-01-03 13:42:00,
2013-01-03 08:52:00,20.0,11.0,-100.00,NW,310,13.0,18.0,64,-99.99,,,-99.99,,2013-01-03 13:52:00,
2013-01-03 09:02:00,20.0,11.0,-100.00,WNW,300,13.0,18.0,66,-99.99,,,-99.99,,2013-01-03 14:02:00,
2013-01-03 09:11:00,20.0,11.0,-100.00,WNW,300,13.0,18.0,66,-99.99,,,-99.99,,2013-01-03 14:11:00,
2013-01-03 09:22:00,20.0,11.0,-100.00,WNW,300,13.0,18.0,66,-99.99,,,-99.99,,2013-01-03 14:22:00,
2013-01-03 09:32:00,19.0,10.0,-100.00,NW,310,13.0,18.0,65,-99.99,,,-99.99,,2013-01-03 14:32:00,
2013-01-03 09:42:00,20.0,10.0,-100.00,NW,310,13.0,18.0,66,-99.99,,,-99.99,,2013-01-03 14:42:00,
2013-01-03 09:53:00,20.0,10.0,-100.00,NW,310,13.0,18.0,66,-99.99,,,-99.99,,2013-01-03 14:53:00,
2013-01-03 10:00:00,20.0,12.0,-100.00,NW,310,13.0,16.0,68,-99.99,,,-99.99,,2013-01-03 15:00:00,
2013-01-03 10:02:00,20.0,10.0,-100.00,NW,310,13.0,18.0,66,-99.99,,,-99.99,,2013-01-03 15:02:00,
2013-01-03 10:11:00,20.0,10.0,-100.00,NW,310,13.0,18.0,66,-99.99,,,-99.99,,2013-01-03 15:11:00,
2013-01-03 10:22:00,20.0,10.0,-100.00,NW,310,13.0,18.0,66,-99.99,,,-99.99,,2013-01-03 15:22:00,
2013-01-03 10:32:00,20.0,12.0,-100.00,NW,310,13.0,16.0,68,-99.99,,,-99.99,,2013-01-03 15:32:00,
2013-01-03 10:42:00,20.0,12.0,-100.00,NW,310,13.0,16.0,68,-99.99,,,-99.99,,2013-01-03 15:42:00,
2013-01-03 10:52:00,20.0,12.0,-100.00,NW,310,13.0,16.0,68,-99.99,,,-99.99,,2013-01-03 15:52:00,
2013-01-03 11:11:00,22.0,12.0,-100.00,WNW,300,13.0,18.0,66,-99.99,,,-99.99,,2013-01-03 16:11:00,
2013-01-03 11:22:00,22.0,12.0,-100.00,WNW,300,13.0,18.0,66,-99.99,,,-99.99,,2013-01-03 16:22:00,
2013-01-03 11:32:00,22.0,12.0,-100.00,WNW,300,13.0,18.0,65,-99.99,,,-99.99,,2013-01-03 16:32:00,
2013-01-03 11:42:00,22.0,13.0,-100.00,WNW,290,13.0,18.0,65,-99.99,,,-99.99,,2013-01-03 16:42:00,
2013-01-03 11:52:00,22.0,13.0,-100.00,WNW,290,13.0,18.0,65,-99.99,,,-99.99,,2013-01-03 16:52:00,
2013-01-03 12:02:00,23.0,13.0,-100.00,WNW,290,13.0,20.0,64,-99.99,,,-99.99,,2013-01-03 17:02:00,
2013-01-03 12:12:00,23.0,13.0,-100.00,WNW,290,13.0,20.0,64,-99.99,,,-99.99,,2013-01-03 17:12:00,
2013-01-03 12:22:00,23.0,13.0,-100.00,WNW,300,13.0,18.0,63,-99.99,,,-99.99,,2013-01-03 17:22:00,
2013-01-03 12:32:00,24.0,13.0,-100.00,West,280,11.0,18.0,61,-99.99,,,-99.99,,2013-01-03 17:32:00,
2013-01-03 12:42:00,24.0,13.0,-100.00,West,280,11.0,18.0,61,-99.99,,,-99.99,,2013-01-03 17:42:00,
2013-01-03 12:52:00,24.0,13.0,-100.00,West,280,11.0,18.0,61,-99.99,,,-99.99,,2013-01-03 17:52:00,
2013-01-03 13:02:00,24.0,13.0,-100.00,West,280,11.0,18.0,61,-99.99,,,-99.99,,2013-01-03 18:02:00,
2013-01-03 13:12:00,24.0,14.0,-100.00,West,270,11.0,16.0,62,-99.99,,,-99.99,,2013-01-03 18:12:00,
2013-01-03 13:22:00,24.0,14.0,-100.00,West,270,11.0,16.0,62,-99.99,,,-99.99,,2013-01-03 18:22:00,
2013-01-03 13:32:00,24.0,14.0,-100.00,West,270,11.0,16.0,62,-99.99,,,-99.99,,2013-01-03 18:32:00,
2013-01-03 13:42:00,26.0,15.0,-100.00,West,260,11.0,16.0,64,-99.99,,,-99.99,,2013-01-03 18:42:00,
2013-01-03 13:52:00,26.0,15.0,-100.00,West,260,11.0,16.0,64,-99.99,,,-99.99,,2013-01-03 18:52:00,
2013-01-03 14:02:00,26.0,15.0,-100.00,West,260,11.0,16.0,64,-99.99,,,-99.99,,2013-01-03 19:02:00,
2013-01-03 14:12:00,26.0,15.0,-100.00,West,260,11.0,16.0,64,-99.99,,,-99.99,,2013-01-03 19:12:00,
2013-01-03 15:02:00,28.0,15.0,-100.00,West,270,13.0,18.0,57,-99.99,,,-99.99,,2013-01-03 20:02:00,
2013-01-03 15:12:00,28.0,15.0,-100.00,West,270,13.0,18.0,57,-99.99,,,-99.99,,2013-01-03 20:12:00,
2013-01-03 15:22:00,28.0,15.0,-100.00,West,270,13.0,18.0,57,-99.99,,,-99.99,,2013-01-03 20:22:00,
2013-01-03 15:32:00,29.0,14.0,-100.00,West,280,13.0,18.0,53,-99.99,,,-99.99,,2013-01-03 20:32:00,
2013-01-03 15:42:00,29.0,14.0,-100.00,West,280,13.0,20.0,53,-99.99,,,-99.99,,2013-01-03 20:42:00,
2013-01-03 15:53:00,29.0,14.0,-100.00,West,280,13.0,20.0,53,-99.99,,,-99.99,,2013-01-03 20:53:00,
2013-01-03 16:02:00,29.0,14.0,-100.00,West,280,13.0,20.0,53,-99.99,,,-99.99,,2013-01-03 21:02:00,
2013-01-03 16:12:00,29.0,14.0,-100.00,West,280,13.0,20.0,53,-99.99,,,-99.99,,2013-01-03 21:12:00,